Time,TemperatureF,DewpointF,PressureIn,WindDirection,WindDirectionDegrees,WindSpeedMPH,WindSpeedGustMPH,Humidity,HourlyPrecipIn,Conditions,Clouds,dailyrainin,SolarRadiationWatts/m^2,SoftwareType,DateUTC
2013-01-20 00:04:00,35.7,33.6,30.19,SSE,163,0.0,0.0,92,0.00,CLR,,0.00,0.0,WeatherDisplay:10.37,2013-01-20 06:04:00,
2013-01-20 00:09:00,35.6,33.5,30.19,SSE,163,0.0,0.0,92,0.00,CLR,,0.00,0.0,WeatherDisplay:10.37,2013-01-20 06:09:00,
2013-01-20 00:14:00,35.8,34.0,30.19,SSE,163,0.0,0.0,93,0.00,CLR,,0.00,0.0,WeatherDisplay:10.37,2013-01-20 06:14:00,
2013-01-20 00:19:00,35.5,33.7,30.19,SSE,163,0.0,0.0,93,0.00,CLR,,0.00,0.0,WeatherDisplay:10.37,2013-01-20 06:19:00,
2013-01-20 00:24:00,35.6,33.5,30.19,SSE,163,0.0,0.0,92,0.00,CLR,,0.00,0.0,WeatherDisplay:10.37,2013-01-20 06:24:00,
2013-01-20 00:29:00,35.4,33.3,30.19,SSE,163,0.0,0.0,92,0.00,CLR,,0.00,0.0,WeatherDisplay:10.37,2013-01-20 06:29:00,
2013-01-20 00:34:00,35.8,33.7,30.19,SSE,163,0.0,0.0,92,0.00,CLR,,0.00,0.0,WeatherDisplay:10.37,2013-01-20 06:34:00,
2013-01-20 00:39:00,35.8,34.0,30.19,SSE,163,0.0,0.0,93,0.00,CLR,,0.00,0.0,WeatherDisplay:10.37,2013-01-20 06:39:00,
2013-01-20 00:44:00,35.8,34.0,30.19,SSE,163,0.0,0.0,93,0.00,CLR,,0.00,0.0,WeatherDisplay:10.37,2013-01-20 06:44:00,
2013-01-20 00:49:00,35.8,34.0,30.19,SSE,163,0.0,0.0,93,0.00,CLR,,0.00,0.0,WeatherDisplay:10.37,2013-01-20 06:49:00,
2013-01-20 00:54:00,36.1,34.3,30.19,SSE,163,0.0,0.0,93,0.00,CLR,,0.00,0.0,WeatherDisplay:10.37,2013-01-20 06:54:00,
2013-01-20 00:59:00,36.0,34.2,30.19,SSE,163,0.0,0.0,93,0.00,CLR,,0.00,0.0,WeatherDisplay:10.37,2013-01-20 06:59:00,
2013-01-20 01:04:00,36.3,34.7,30.19,SSE,163,0.0,0.0,94,0.00,CLR,,0.00,0.0,WeatherDisplay:10.37,2013-01-20 07:04:00,
2013-01-20 01:09:00,36.2,34.6,30.19,SSE,163,0.0,0.0,94,0.00,CLR,,0.00,0.0,WeatherDisplay:10.37,2013-01-20 07:09:00,
2013-01-20 01:14:00,36.8,35.2,30.19,SSE,163,0.0,0.0,94,0.00,CLR,,0.00,0.0,WeatherDisplay:10.37,2013-01-20 07:14:00,
2013-01-20 01:19:00,36.4,34.8,30.19,SSE,163,0.0,0.0,94,0.00,CLR,,0.00,0.0,WeatherDisplay:10.37,2013-01-20 07:19:00,
2013-01-20 01:24:00,34.6,33.1,30.19,SSE,163,0.0,0.0,94,0.00,CLR,,0.00,0.0,WeatherDisplay:10.37,2013-01-20 07:24:00,
2013-01-20 01:29:00,34.2,32.7,30.19,SSE,163,0.0,0.0,94,0.00,CLR,,0.00,0.0,WeatherDisplay:10.37,2013-01-20 07:29:00,
2013-01-20 01:34:00,34.6,33.1,30.19,SSE,163,0.0,0.0,94,0.00,CLR,,0.00,0.0,WeatherDisplay:10.37,2013-01-20 07:34:00,
2013-01-20 01:39:00,34.6,33.1,30.19,SSE,163,0.0,0.0,94,0.00,CLR,,0.00,0.0,WeatherDisplay:10.37,2013-01-20 07:39:00,
2013-01-20 01:44:00,34.5,33.0,30.19,SSE,163,0.0,0.0,94,0.00,CLR,,0.00,0.0,WeatherDisplay:10.37,2013-01-20 07:44:00,
2013-01-20 01:49:00,34.0,32.5,30.19,SSE,163,0.0,0.0,94,0.00,CLR,,0.00,0.0,WeatherDisplay:10.37,2013-01-20 07:49:00,
2013-01-20 01:54:00,34.0,32.5,30.19,SSE,163,0.0,0.0,94,0.00,CLR,,0.00,0.0,WeatherDisplay:10.37,2013-01-20 07:54:00,
2013-01-20 01:59:00,34.5,33.0,30.19,SSE,163,0.0,0.0,94,0.00,CLR,,0.00,0.0,WeatherDisplay:10.37,2013-01-20 07:59:00,
2013-01-20 02:04:00,34.7,33.4,30.19,SSE,163,0.0,0.0,95,0.00,CLR,,0.00,0.0,WeatherDisplay:10.37,2013-01-20 08:04:00,
2013-01-20 02:09:00,34.2,32.7,30.19,SSE,163,0.0,0.0,94,0.00,CLR,,0.00,0.0,WeatherDisplay:10.37,2013-01-20 08:09:00,
2013-01-20 02:14:00,34.6,33.1,30.19,SSE,163,0.0,0.0,94,0.00,CLR,,0.00,0.0,WeatherDisplay:10.37,2013-01-20 08:14:00,
2013-01-20 02:19:00,34.0,32.5,30.19,SSE,163,0.0,0.0,94,0.00,CLR,,0.00,0.0,WeatherDisplay:10.37,2013-01-20 08:19:00,
2013-01-20 02:24:00,33.5,32.0,30.19,SSE,163,0.0,0.0,94,0.00,CLR,,0.00,0.0,WeatherDisplay:10.37,2013-01-20 08:24:00,
2013-01-20 02:29:00,33.7,32.4,30.19,SSE,163,0.0,0.0,95,0.00,CLR,,0.00,0.0,WeatherDisplay:10.37,2013-01-20 08:29:00,
2013-01-20 02:34:00,34.5,33.2,30.19,SSE,163,0.0,0.0,95,0.00,CLR,,0.00,0.0,WeatherDisplay:10.37,2013-01-20 08:34:00,
2013-01-20 02:39:00,34.3,33.0,30.19,SSE,163,0.0,0.0,95,0.00,CLR,,0.00,0.0,WeatherDisplay:10.37,2013-01-20 08:39:00,
2013-01-20 02:44:00,33.9,32.4,30.19,SSE,163,0.0,0.0,94,0.00,CLR,,0.00,0.0,WeatherDisplay:10.37,2013-01-20 08:44:00,
2013-01-20 02:49:00,34.1,32.6,30.18,SSE,163,0.0,0.0,94,0.00,CLR,,0.00,0.0,WeatherDisplay:10.37,2013-01-20 08:49:00,
2013-01-20 02:54:00,33.8,32.3,30.18,SSE,163,0.0,0.0,94,0.00,CLR,,0.00,0.0,WeatherDisplay:10.37,2013-01-20 08:54:00,
2013-01-20 02:59:00,33.6,32.3,30.18,SSE,163,0.0,0.0,95,0.00,CLR,,0.00,0.0,WeatherDisplay:10.37,2013-01-20 08:59:00,
2013-01-20 03:04:00,33.9,32.6,30.18,SSE,163,0.0,0.0,95,0.00,CLR,,0.00,0.0,WeatherDisplay:10.37,2013-01-20 09:04:00,
2013-01-20 03:09:00,34.8,33.5,30.18,SSE,163,0.0,0.0,95,0.00,CLR,,0.00,0.0,WeatherDisplay:10.37,2013-01-20 09:09:00,
2013-01-20 03:14:00,33.5,32.2,30.18,SSE,163,0.0,0.0,95,0.00,CLR,,0.00,0.0,WeatherDisplay:10.37,2013-01-20 09:14:00,
2013-01-20 03:19:00,32.7,31.4,30.18,SSE,163,0.0,0.0,95,0.00,CLR,,0.00,0.0,WeatherDisplay:10.37,2013-01-20 09:19:00,
2013-01-20 03:24:00,32.3,31.0,30.18,SSE,163,0.0,0.0,95,0.00,CLR,,0.00,0.0,WeatherDisplay:10.37,2013-01-20 09:24:00,
2013-01-20 03:29:00,32.2,30.7,30.18,SSE,163,0.0,0.0,94,0.00,CLR,,0.00,0.0,WeatherDisplay:10.37,2013-01-20 09:29:00,
2013-01-20 03:34:00,33.1,31.8,30.18,SSE,163,0.0,0.0,95,0.00,CLR,,0.00,0.0,WeatherDisplay:10.37,2013-01-20 09:34:00,
2013-01-20 03:39:00,34.3,33.0,30.18,SSE,163,0.0,0.0,95,0.00,CLR,,0.00,0.0,WeatherDisplay:10.37,2013-01-20 09:39:00,
2013-01-20 03:44:00,34.9,33.6,30.18,SSE,163,0.0,0.0,95,0.00,CLR,,0.00,0.0,WeatherDisplay:10.37,2013-01-20 09:44:00,
2013-01-20 03:49:00,34.3,33.3,30.18,SSE,163,0.0,0.0,96,0.00,CLR,,0.00,0.0,WeatherDisplay:10.37,2013-01-20 09:49:00,
2013-01-20 03:54:00,34.5,33.2,30.18,SSE,163,0.0,0.0,95,0.00,CLR,,0.00,0.0,WeatherDisplay:10.37,2013-01-20 09:54:00,
2013-01-20 03:59:00,33.6,32.3,30.18,SSE,163,0.0,0.0,95,0.00,CLR,,0.00,0.0,WeatherDisplay:10.37,2013-01-20 09:59:00,
2013-01-20 04:04:00,31.2,29.9,30.18,SSE,163,0.0,0.0,95,0.00,CLR,,0.00,0.0,WeatherDisplay:10.37,2013-01-20 10:04:00,
2013-01-20 04:09:00,32.1,30.8,30.17,SSE,163,0.0,0.0,95,0.00,CLR,,0.00,0.0,WeatherDisplay:10.37,2013-01-20 10:09:00,
2013-01-20 04:14:00,31.4,30.1,30.17,SSE,163,0.0,0.0,95,0.00,CLR,,0.00,0.0,WeatherDisplay:10.37,2013-01-20 10:14:00,
2013-01-20 04:19:00,33.3,32.3,30.17,SSE,163,0.0,0.0,96,0.00,CLR,,0.00,0.0,WeatherDisplay:10.37,2013-01-20 10:19:00,
2013-01-20 04:24:00,32.4,31.4,30.17,SSE,163,0.0,0.0,96,0.00,CLR,,0.00,0.0,WeatherDisplay:10.37,2013-01-20 10:24:00,
2013-01-20 04:29:00,31.9,30.6,30.17,SSE,163,0.0,0.0,95,0.00,CLR,,0.00,0.0,WeatherDisplay:10.37,2013-01-20 10:29:00,
2013-01-20 04:34:00,31.3,30.0,30.17,SSE,163,0.0,0.0,95,0.00,CLR,,0.00,0.0,WeatherDisplay:10.37,2013-01-20 10:34:00,
2013-01-20 04:39:00,31.1,29.8,30.17,SSE,163,0.0,0.0,95,0.00,CLR,,0.00,0.0,WeatherDisplay:10.37,2013-01-20 10:39:00,
2013-01-20 04:44:00,31.3,30.0,30.17,SSE,163,0.0,0.0,95,0.00,CLR,,0.00,0.0,WeatherDisplay:10.37,2013-01-20 10:44:00,
2013-01-20 04:49:00,31.7,30.4,30.17,SSE,163,0.0,0.0,95,0.00,CLR,,0.00,0.0,WeatherDisplay:10.37,2013-01-20 10:49:00,
2013-01-20 04:54:00,32.0,30.7,30.17,SSE,163,0.0,0.0,95,0.00,CLR,,0.00,0.0,WeatherDisplay:10.37,2013-01-20 10:54:00,
2013-01-20 04:59:00,31.9,30.6,30.17,SSE,163,0.0,0.0,95,0.00,CLR,,0.00,0.0,WeatherDisplay:10.37,2013-01-20 10:59:00,
2013-01-20 05:04:00,31.5,30.2,30.16,SSE,163,0.0,0.0,95,0.00,CLR,,0.00,0.0,WeatherDisplay:10.37,2013-01-20 11:04:00,
2013-01-20 05:09:00,32.2,31.2,30.16,SSE,163,0.0,0.0,96,0.00,CLR,,0.00,0.0,WeatherDisplay:10.37,2013-01-20 11:09:00,
2013-01-20 05:14:00,31.8,30.8,30.16,SSE,163,0.0,0.0,96,0.00,CLR,,0.00,0.0,WeatherDisplay:10.37,2013-01-20 11:14:00,
2013-01-20 05:19:00,30.6,29.6,30.16,SSE,163,0.0,0.0,96,0.00,CLR,,0.00,0.0,WeatherDisplay:10.37,2013-01-20 11:19:00,
2013-01-20 05:24:00,31.2,30.2,30.17,SSE,163,0.0,0.0,96,0.00,CLR,,0.00,0.0,WeatherDisplay:10.37,2013-01-20 11:24:00,
2013-01-20 05:29:00,31.1,29.8,30.17,SSE,163,0.0,0.0,95,0.00,CLR,,0.00,0.0,WeatherDisplay:10.37,2013-01-20 11:29:00,
2013-01-20 05:34:00,31.3,30.3,30.17,SSE,163,0.0,0.0,96,0.00,CLR,,0.00,0.0,WeatherDisplay:10.37,2013-01-20 11:34:00,
2013-01-20 05:39:00,31.2,30.2,30.17,SSE,163,0.0,0.0,96,0.00,CLR,,0.00,0.0,WeatherDisplay:10.37,2013-01-20 11:39:00,
2013-01-20 05:44:00,31.5,30.5,30.17,SSE,163,0.0,0.0,96,0.00,CLR,,0.00,0.0,WeatherDisplay:10.37,2013-01-20 11:44:00,
2013-01-20 05:49:00,32.1,31.1,30.17,SSE,163,0.0,0.0,96,0.00,CLR,,0.00,0.0,WeatherDisplay:10.37,2013-01-20 11:49:00,
2013-01-20 05:54:00,32.1,31.1,30.17,SSE,163,0.0,0.0,96,0.00,CLR,,0.00,0.0,WeatherDisplay:10.37,2013-01-20 11:54:00,
2013-01-20 05:59:00,32.5,31.5,30.17,SSE,163,0.0,0.0,96,0.00,CLR,,0.00,0.0,WeatherDisplay:10.37,2013-01-20 11:59:00,
2013-01-20 06:04:00,31.2,30.2,30.17,SSE,163,0.0,0.0,96,0.00,CLR,,0.00,0.0,WeatherDisplay:10.37,2013-01-20 12:04:00,
2013-01-20 06:09:00,30.7,29.7,30.17,SSE,163,0.0,0.0,96,0.00,CLR,,0.00,0.0,WeatherDisplay:10.37,2013-01-20 12:09:00,
2013-01-20 06:14:00,30.1,29.1,30.17,SSE,163,0.0,0.0,96,0.00,CLR,,0.00,0.0,WeatherDisplay:10.37,2013-01-20 12:14:00,
2013-01-20 06:19:00,29.9,28.9,30.17,SSE,163,0.0,0.0,96,0.00,CLR,,0.00,0.0,WeatherDisplay:10.37,2013-01-20 12:19:00,
2013-01-20 06:24:00,30.8,29.8,30.17,SSE,163,0.0,0.0,96,0.00,CLR,,0.00,0.0,WeatherDisplay:10.37,2013-01-20 12:24:00,
2013-01-20 06:29:00,32.1,31.1,30.17,SSE,163,0.0,0.0,96,0.00,CLR,,0.00,0.0,WeatherDisplay:10.37,2013-01-20 12:29:00,
2013-01-20 06:34:00,30.9,29.9,30.17,SSE,163,0.0,0.0,96,0.00,CLR,,0.00,0.0,WeatherDisplay:10.37,2013-01-20 12:34:00,
2013-01-20 06:39:00,32.0,31.0,30.17,SSE,163,0.0,0.0,96,0.00,CLR,,0.00,0.0,WeatherDisplay:10.37,2013-01-20 12:39:00,
2013-01-20 06:44:00,31.9,30.9,30.17,SSE,163,0.0,0.0,96,0.00,CLR,,0.00,0.0,WeatherDisplay:10.37,2013-01-20 12:44:00,
2013-01-20 06:49:00,32.9,31.9,30.17,SSE,163,0.0,0.0,96,0.00,CLR,,0.00,0.0,WeatherDisplay:10.37,2013-01-20 12:49:00,
2013-01-20 06:54:00,32.6,31.6,30.17,SSE,163,0.0,0.0,96,0.00,CLR,,0.00,0.0,WeatherDisplay:10.37,2013-01-20 12:54:00,
2013-01-20 06:59:00,31.8,30.8,30.17,SSE,163,0.0,0.0,96,0.00,CLR,,0.00,0.0,WeatherDisplay:10.37,2013-01-20 12:59:00,
2013-01-20 07:04:00,31.1,30.1,30.17,SSE,163,0.0,0.0,96,0.00,CLR,,0.00,0.0,WeatherDisplay:10.37,2013-01-20 13:04:00,
2013-01-20 07:09:00,29.8,28.8,30.17,SSE,163,0.0,0.0,96,0.00,CLR,,0.00,0.0,WeatherDisplay:10.37,2013-01-20 13:09:00,
2013-01-20 07:14:00,30.1,29.1,30.18,SSE,163,0.0,0.0,96,0.00,CLR,,0.00,0.0,WeatherDisplay:10.37,2013-01-20 13:14:00,
2013-01-20 07:19:00,29.9,28.9,30.18,SSE,163,0.0,0.0,96,0.00,CLR,,0.00,0.0,WeatherDisplay:10.37,2013-01-20 13:19:00,
2013-01-20 07:24:00,30.2,29.2,30.18,SSE,163,0.0,0.0,96,0.00,CLR,,0.00,0.0,WeatherDisplay:10.37,2013-01-20 13:24:00,
2013-01-20 07:29:00,30.1,29.1,30.18,SSE,163,0.0,0.0,96,0.00,CLR,,0.00,0.0,WeatherDisplay:10.37,2013-01-20 13:29:00,
2013-01-20 07:34:00,31.2,30.2,30.18,SSE,162,3.0,5.8,96,0.00,CLR,,0.00,5.5,WeatherDisplay:10.37,2013-01-20 13:34:00,
2013-01-20 07:39:00,33.3,32.3,30.18,SSE,160,1.5,3.5,96,0.00,CLR,,0.00,7.7,WeatherDisplay:10.37,2013-01-20 13:39:00,
2013-01-20 07:44:00,34.6,33.8,30.18,SSE,160,2.6,4.6,97,0.00,CLR,,0.00,9.9,WeatherDisplay:10.37,2013-01-20 13:44:00,
2013-01-20 07:49:00,35.3,34.5,30.18,SSE,157,4.0,5.0,97,0.00,SCT,,0.00,13.2,WeatherDisplay:10.37,2013-01-20 13:49:00,
2013-01-20 07:54:00,35.2,34.4,30.18,SSE,157,4.2,4.6,97,0.00,SCT,,0.00,15.4,WeatherDisplay:10.37,2013-01-20 13:54:00,
2013-01-20 07:59:00,34.4,33.6,30.19,SSE,157,2.5,4.0,97,0.00,SCT,,0.00,17.6,WeatherDisplay:10.37,2013-01-20 13:59:00,
2013-01-20 08:04:00,35.1,34.3,30.19,SSE,157,3.3,4.6,97,0.00,CLR,,0.00,20.9,WeatherDisplay:10.37,2013-01-20 14:04:00,
2013-01-20 08:09:00,35.4,34.6,30.19,SSE,157,4.0,5.8,97,0.00,CLR,,0.00,23.1,WeatherDisplay:10.37,2013-01-20 14:09:00,
2013-01-20 08:14:00,36.0,35.2,30.19,SSE,157,2.7,4.0,97,0.00,CLR,,0.00,25.3,WeatherDisplay:10.37,2013-01-20 14:14:00,
2013-01-20 08:19:00,35.9,35.1,30.19,SSE,157,0.0,0.0,97,0.00,CLR,,0.00,27.5,WeatherDisplay:10.37,2013-01-20 14:19:00,
2013-01-20 08:24:00,35.8,35.0,30.19,SSE,157,0.0,0.0,97,0.00,CLR,,0.00,28.6,WeatherDisplay:10.37,2013-01-20 14:24:00,
2013-01-20 08:29:00,36.5,35.7,30.19,SSE,156,4.5,6.0,97,0.00,CLR,,0.00,30.8,WeatherDisplay:10.37,2013-01-20 14:29:00,
2013-01-20 08:34:00,37.2,36.2,30.19,SSE,156,2.0,4.0,96,0.00,CLR,,0.00,33.0,WeatherDisplay:10.37,2013-01-20 14:34:00,
2013-01-20 08:39:00,37.4,36.4,30.19,SSE,156,3.5,5.0,96,0.00,CLR,,0.00,35.2,WeatherDisplay:10.37,2013-01-20 14:39:00,
2013-01-20 08:44:00,37.7,36.4,30.19,SSE,156,2.3,4.6,95,0.00,CLR,,0.00,36.3,WeatherDisplay:10.37,2013-01-20 14:44:00,
2013-01-20 08:49:00,38.7,37.1,30.19,SSE,156,0.0,0.0,94,0.00,CLR,,0.00,38.5,WeatherDisplay:10.37,2013-01-20 14:49:00,
2013-01-20 08:54:00,39.1,37.5,30.19,SSE,156,0.0,0.0,94,0.00,CLR,,0.00,117.7,WeatherDisplay:10.37,2013-01-20 14:54:00,
2013-01-20 08:59:00,39.4,37.8,30.19,SSE,156,0.0,0.0,94,0.00,CLR,,0.00,115.5,WeatherDisplay:10.37,2013-01-20 14:59:00,
2013-01-20 09:04:00,40.3,38.7,30.19,SSE,156,0.0,0.0,94,0.00,CLR,,0.00,114.4,WeatherDisplay:10.37,2013-01-20 15:04:00,
2013-01-20 09:09:00,41.1,39.2,30.19,SSE,156,0.0,0.0,93,0.00,CLR,,0.00,125.4,WeatherDisplay:10.37,2013-01-20 15:09:00,
2013-01-20 09:14:00,41.8,39.6,30.19,SSE,156,0.0,0.0,92,0.00,CLR,,0.00,69.3,WeatherDisplay:10.37,2013-01-20 15:14:00,
2013-01-20 09:19:00,42.4,40.2,30.19,SSE,156,0.0,0.0,92,0.00,CLR,,0.00,68.2,WeatherDisplay:10.37,2013-01-20 15:19:00,
2013-01-20 09:24:00,43.2,40.8,30.19,SSE,156,0.0,0.0,91,0.00,CLR,,0.00,86.9,WeatherDisplay:10.37,2013-01-20 15:24:00,
2013-01-20 09:29:00,43.8,41.3,30.19,SSE,156,0.0,0.0,91,0.00,CLR,,0.00,176.0,WeatherDisplay:10.37,2013-01-20 15:29:00,
2013-01-20 09:34:00,44.6,41.8,30.19,SSE,156,0.0,0.0,90,0.00,CLR,,0.00,253.0,WeatherDisplay:10.37,2013-01-20 15:34:00,
2013-01-20 09:39:00,45.7,42.6,30.19,SSE,156,0.0,0.0,89,0.00,CLR,,0.00,290.4,WeatherDisplay:10.37,2013-01-20 15:39:00,
2013-01-20 09:44:00,46.4,43.0,30.19,SSE,156,0.0,0.0,88,0.00,CLR,,0.00,336.6,WeatherDisplay:10.37,2013-01-20 15:44:00,
2013-01-20 09:49:00,47.2,43.2,30.19,SSE,156,0.0,0.0,86,0.00,CLR,,0.00,357.5,WeatherDisplay:10.37,2013-01-20 15:49:00,
2013-01-20 09:54:00,47.8,43.5,30.19,SSE,156,0.0,0.0,85,0.00,CLR,,0.00,372.9,WeatherDisplay:10.37,2013-01-20 15:54:00,
2013-01-20 09:59:00,48.3,43.7,30.19,SSE,156,0.0,0.0,84,0.00,CLR,,0.00,388.3,WeatherDisplay:10.37,2013-01-20 15:59:00,
2013-01-20 10:04:00,49.3,44.7,30.19,SSE,156,0.7,3.5,84,0.00,CLR,,0.00,403.7,WeatherDisplay:10.37,2013-01-20 16:04:00,
2013-01-20 10:09:00,50.2,44.3,30.19,SSE,156,0.0,2.3,80,0.00,CLR,,0.00,419.1,WeatherDisplay:10.37,2013-01-20 16:09:00,
2013-01-20 10:14:00,51.6,45.3,30.19,SSE,156,0.0,0.0,79,0.00,CLR,,0.00,446.6,WeatherDisplay:10.37,2013-01-20 16:14:00,
2013-01-20 10:19:00,50.8,44.9,30.19,SSE,156,0.0,0.0,80,0.00,CLR,,0.00,469.7,WeatherDisplay:10.37,2013-01-20 16:19:00,
2013-01-20 10:24:00,51.9,45.3,30.19,SSE,156,0.0,0.0,78,0.00,CLR,,0.00,477.4,WeatherDisplay:10.37,2013-01-20 16:24:00,
2013-01-20 10:29:00,53.1,46.4,30.19,SSE,156,0.0,0.0,78,0.00,CLR,,0.00,492.8,WeatherDisplay:10.37,2013-01-20 16:29:00,
2013-01-20 10:34:00,53.6,46.6,30.19,SSE,156,1.2,4.0,77,0.00,CLR,,0.00,438.9,WeatherDisplay:10.37,2013-01-20 16:34:00,
2013-01-20 10:39:00,54.3,46.2,30.19,SSE,156,0.8,3.5,74,0.00,CLR,,0.00,515.9,WeatherDisplay:10.37,2013-01-20 16:39:00,
2013-01-20 10:44:00,54.0,45.5,30.19,SSE,156,4.8,6.0,73,0.00,CLR,,0.00,528.0,WeatherDisplay:10.37,2013-01-20 16:44:00,
2013-01-20 10:49:00,55.1,46.6,30.19,SSE,156,3.8,4.6,73,0.00,CLR,,0.00,539.0,WeatherDisplay:10.37,2013-01-20 16:49:00,
2013-01-20 10:54:00,55.4,46.5,30.19,SSE,156,5.4,5.8,72,0.00,CLR,,0.00,551.1,WeatherDisplay:10.37,2013-01-20 16:54:00,
2013-01-20 10:59:00,56.0,46.4,30.19,SSE,156,6.1,10.4,70,0.00,CLR,,0.00,563.2,WeatherDisplay:10.37,2013-01-20 16:59:00,
2013-01-20 11:04:00,57.0,46.9,30.18,SSE,156,3.7,7.0,69,0.00,CLR,,0.00,572.0,WeatherDisplay:10.37,2013-01-20 17:04:00,
2013-01-20 11:09:00,57.5,47.0,30.18,SSE,155,3.5,6.9,68,0.00,CLR,,0.00,579.7,WeatherDisplay:10.37,2013-01-20 17:09:00,
2013-01-20 11:14:00,57.7,46.4,30.18,SSE,155,4.4,6.9,66,0.00,CLR,,0.00,587.4,WeatherDisplay:10.37,2013-01-20 17:14:00,
2013-01-20 11:19:00,58.0,46.3,30.18,SSE,155,3.4,4.6,65,0.00,CLR,,0.00,599.5,WeatherDisplay:10.37,2013-01-20 17:19:00,
2013-01-20 11:24:00,58.3,46.6,30.18,SSE,155,3.7,6.9,65,0.00,CLR,,0.00,607.2,WeatherDisplay:10.37,2013-01-20 17:24:00,
2013-01-20 11:29:00,57.4,45.7,30.17,SSE,155,2.7,4.0,65,0.00,CLR,,0.00,614.9,WeatherDisplay:10.37,2013-01-20 17:29:00,
2013-01-20 11:34:00,59.2,46.2,30.17,SSE,155,3.5,5.0,62,0.00,CLR,,0.00,620.4,WeatherDisplay:10.37,2013-01-20 17:34:00,
2013-01-20 11:39:00,58.7,46.1,30.16,SSE,155,4.7,6.9,63,0.00,CLR,,0.00,630.3,WeatherDisplay:10.37,2013-01-20 17:39:00,
2013-01-20 11:44:00,58.8,45.8,30.16,SSE,155,4.1,5.8,62,0.00,CLR,,0.00,635.8,WeatherDisplay:10.37,2013-01-20 17:44:00,
2013-01-20 11:49:00,60.1,46.6,30.16,SSE,155,2.6,7.0,61,0.00,CLR,,0.00,640.2,WeatherDisplay:10.37,2013-01-20 17:49:00,
2013-01-20 11:54:00,60.8,46.8,30.15,SSE,155,1.9,4.6,60,0.00,CLR,,0.00,645.7,WeatherDisplay:10.37,2013-01-20 17:54:00,
2013-01-20 11:59:00,60.8,46.4,30.15,SSE,155,2.0,3.5,59,0.00,CLR,,0.00,650.1,WeatherDisplay:10.37,2013-01-20 17:59:00,
2013-01-20 12:04:00,61.9,47.0,30.15,SSE,155,4.1,6.0,58,0.00,CLR,,0.00,657.8,WeatherDisplay:10.37,2013-01-20 18:04:00,
2013-01-20 12:09:00,62.3,46.9,30.14,SSE,155,1.9,5.0,57,0.00,CLR,,0.00,661.1,WeatherDisplay:10.37,2013-01-20 18:09:00,
2013-01-20 12:14:00,62.0,46.1,30.14,SSE,158,4.9,6.9,56,0.00,CLR,,0.00,663.3,WeatherDisplay:10.37,2013-01-20 18:14:00,
2013-01-20 12:19:00,63.2,46.8,30.14,SSE,154,4.1,5.8,55,0.00,CLR,,0.00,665.5,WeatherDisplay:10.37,2013-01-20 18:19:00,
2013-01-20 12:24:00,63.9,46.9,30.13,SSE,160,8.4,11.5,54,0.00,CLR,,0.00,668.8,WeatherDisplay:10.37,2013-01-20 18:24:00,
2013-01-20 12:29:00,64.0,45.5,30.13,South,181,8.0,13.8,51,0.00,CLR,,0.00,671.0,WeatherDisplay:10.37,2013-01-20 18:29:00,
2013-01-20 12:34:00,63.9,44.9,30.13,South,170,7.3,10.4,50,0.00,CLR,,0.00,673.2,WeatherDisplay:10.37,2013-01-20 18:34:00,
2013-01-20 12:39:00,64.7,45.6,30.12,South,185,5.7,11.5,50,0.00,CLR,,0.00,674.3,WeatherDisplay:10.37,2013-01-20 18:39:00,
2013-01-20 12:44:00,63.9,44.9,30.12,SSE,156,10.0,15.0,50,0.00,CLR,,0.00,674.3,WeatherDisplay:10.37,2013-01-20 18:44:00,
2013-01-20 12:49:00,64.3,45.3,30.12,SSE,167,8.0,11.5,50,0.00,CLR,,0.00,673.2,WeatherDisplay:10.37,2013-01-20 18:49:00,
2013-01-20 12:54:00,65.5,45.3,30.11,South,176,6.4,11.5,48,0.00,CLR,,0.00,673.2,WeatherDisplay:10.37,2013-01-20 18:54:00,
2013-01-20 12:59:00,64.9,44.7,30.11,SSE,162,8.6,11.5,48,0.00,CLR,,0.00,671.0,WeatherDisplay:10.37,2013-01-20 18:59:00,
2013-01-20 13:04:00,64.5,43.8,30.11,South,191,13.5,17.3,47,0.00,CLR,,0.00,671.0,WeatherDisplay:10.37,2013-01-20 19:04:00,
2013-01-20 13:09:00,64.5,43.8,30.10,South,179,10.7,11.5,47,0.00,CLR,,0.00,668.8,WeatherDisplay:10.37,2013-01-20 19:09:00,
2013-01-20 13:14:00,65.3,44.0,30.11,SSE,155,11.0,11.5,46,0.00,CLR,,0.00,663.3,WeatherDisplay:10.37,2013-01-20 19:14:00,
2013-01-20 13:19:00,64.4,43.2,30.10,South,185,9.0,15.0,46,0.00,CLR,,0.00,661.1,WeatherDisplay:10.37,2013-01-20 19:19:00,
2013-01-20 13:24:00,65.4,42.9,30.10,SE,145,8.6,11.5,44,0.00,CLR,,0.00,657.8,WeatherDisplay:10.37,2013-01-20 19:24:00,
2013-01-20 13:29:00,64.9,44.2,30.10,SSE,166,4.7,8.0,47,0.00,CLR,,0.00,651.2,WeatherDisplay:10.37,2013-01-20 19:29:00,
2013-01-20 13:34:00,64.6,43.9,30.09,SSE,155,8.4,11.5,47,0.00,CLR,,0.00,647.9,WeatherDisplay:10.37,2013-01-20 19:34:00,
2013-01-20 13:39:00,64.8,44.1,30.09,South,187,9.4,13.8,47,0.00,CLR,,0.00,645.7,WeatherDisplay:10.37,2013-01-20 19:39:00,
2013-01-20 13:44:00,65.4,44.6,30.09,South,172,7.4,9.2,47,0.00,CLR,,0.00,634.7,WeatherDisplay:10.37,2013-01-20 19:44:00,
2013-01-20 13:49:00,65.4,44.1,30.09,South,177,6.4,11.0,46,0.00,CLR,,0.00,630.3,WeatherDisplay:10.37,2013-01-20 19:49:00,
2013-01-20 13:54:00,65.8,44.4,30.09,South,171,5.7,10.4,46,0.00,CLR,,0.00,622.6,WeatherDisplay:10.37,2013-01-20 19:54:00,
2013-01-20 13:59:00,66.6,44.0,30.09,SSE,155,6.1,9.2,44,0.00,CLR,,0.00,612.7,WeatherDisplay:10.37,2013-01-20 19:59:00,
2013-01-20 14:04:00,66.7,44.7,30.09,SSE,162,7.8,11.5,45,0.00,CLR,,0.00,609.4,WeatherDisplay:10.37,2013-01-20 20:04:00,
2013-01-20 14:09:00,66.7,44.7,30.08,SSE,158,6.6,8.1,45,0.00,CLR,,0.00,597.3,WeatherDisplay:10.37,2013-01-20 20:09:00,
2013-01-20 14:14:00,66.5,43.9,30.08,SE,145,8.2,10.4,44,0.00,CLR,,0.00,591.8,WeatherDisplay:10.37,2013-01-20 20:14:00,
2013-01-20 14:19:00,67.3,45.2,30.08,SSE,168,6.1,9.2,45,0.00,CLR,,0.00,388.3,WeatherDisplay:10.37,2013-01-20 20:19:00,
2013-01-20 14:24:00,65.9,43.9,30.08,SSE,161,5.9,9.2,45,0.00,CLR,,0.00,554.4,WeatherDisplay:10.37,2013-01-20 20:24:00,
2013-01-20 14:29:00,67.9,44.6,30.08,SSE,160,8.4,13.0,43,0.00,CLR,,0.00,563.2,WeatherDisplay:10.37,2013-01-20 20:29:00,
2013-01-20 14:34:00,68.0,44.0,30.07,SSE,157,6.4,12.7,42,0.00,CLR,,0.00,553.3,WeatherDisplay:10.37,2013-01-20 20:34:00,
2013-01-20 14:39:00,67.3,42.8,30.07,South,182,5.9,11.5,41,0.00,CLR,,0.00,543.4,WeatherDisplay:10.37,2013-01-20 20:39:00,
2013-01-20 14:44:00,66.4,42.0,30.07,South,179,7.2,11.5,41,0.00,CLR,,0.00,533.5,WeatherDisplay:10.37,2013-01-20 20:44:00,
2013-01-20 14:49:00,67.7,42.5,30.07,SSW,192,7.1,13.0,40,0.00,CLR,,0.00,523.6,WeatherDisplay:10.37,2013-01-20 20:49:00,
2013-01-20 14:54:00,67.4,42.9,30.07,SSE,158,5.5,9.2,41,0.00,CLR,,0.00,482.9,WeatherDisplay:10.37,2013-01-20 20:54:00,
2013-01-20 14:59:00,67.3,42.8,30.06,SSE,157,6.6,9.0,41,0.00,CLR,,0.00,137.5,WeatherDisplay:10.37,2013-01-20 20:59:00,
2013-01-20 15:04:00,67.1,42.6,30.06,South,186,4.3,9.2,41,0.00,CLR,,0.00,170.5,WeatherDisplay:10.37,2013-01-20 21:04:00,
2013-01-20 15:09:00,66.8,43.0,30.07,South,179,9.4,11.5,42,0.00,CLR,,0.00,466.4,WeatherDisplay:10.37,2013-01-20 21:09:00,
2013-01-20 15:14:00,66.0,41.6,30.06,South,179,4.9,9.2,41,0.00,CLR,,0.00,48.4,WeatherDisplay:10.37,2013-01-20 21:14:00,
2013-01-20 15:19:00,67.2,43.3,30.06,SSE,168,6.2,6.9,42,0.00,CLR,,0.00,50.6,WeatherDisplay:10.37,2013-01-20 21:19:00,
2013-01-20 15:24:00,67.2,42.7,30.06,SSE,166,5.1,10.0,41,0.00,CLR,,0.00,48.4,WeatherDisplay:10.37,2013-01-20 21:24:00,
2013-01-20 15:29:00,67.5,42.3,30.06,SSE,168,4.5,10.4,40,0.00,CLR,,0.00,46.2,WeatherDisplay:10.37,2013-01-20 21:29:00,
2013-01-20 15:34:00,66.5,42.1,30.06,SSE,168,2.6,5.8,41,0.00,CLR,,0.00,79.2,WeatherDisplay:10.37,2013-01-20 21:34:00,
2013-01-20 15:39:00,66.3,41.2,30.06,SSE,168,4.0,7.0,40,0.00,CLR,,0.00,168.3,WeatherDisplay:10.37,2013-01-20 21:39:00,
2013-01-20 15:44:00,66.8,41.0,30.06,South,173,6.5,8.1,39,0.00,CLR,,0.00,44.0,WeatherDisplay:10.37,2013-01-20 21:44:00,
2013-01-20 15:49:00,66.6,41.5,30.06,South,174,5.9,9.0,40,0.00,CLR,,0.00,46.2,WeatherDisplay:10.37,2013-01-20 21:49:00,
2013-01-20 15:54:00,66.4,40.7,30.06,SW,219,9.0,10.4,39,0.00,CLR,,0.00,58.3,WeatherDisplay:10.37,2013-01-20 21:54:00,
2013-01-20 15:59:00,66.5,40.8,30.06,SSW,203,4.9,6.9,39,0.00,CLR,,0.00,50.6,WeatherDisplay:10.37,2013-01-20 21:59:00,
2013-01-20 16:04:00,65.8,40.1,30.06,SSW,203,1.0,3.5,39,0.00,CLR,,0.00,160.6,WeatherDisplay:10.37,2013-01-20 22:04:00,
2013-01-20 16:09:00,66.0,40.3,30.06,SSW,203,5.1,8.1,39,0.00,CLR,,0.00,132.0,WeatherDisplay:10.37,2013-01-20 22:09:00,
2013-01-20 16:14:00,66.0,41.0,30.06,SSW,203,4.0,6.9,40,0.00,CLR,,0.00,40.7,WeatherDisplay:10.37,2013-01-20 22:14:00,
2013-01-20 16:19:00,65.5,39.2,30.05,SSW,203,1.6,4.6,38,0.00,CLR,,0.00,38.5,WeatherDisplay:10.37,2013-01-20 22:19:00,
2013-01-20 16:24:00,65.7,40.7,30.05,SSW,202,7.7,9.0,40,0.00,CLR,,0.00,42.9,WeatherDisplay:10.37,2013-01-20 22:24:00,
2013-01-20 16:29:00,65.6,40.6,30.05,South,178,7.9,9.2,40,0.00,CLR,,0.00,44.0,WeatherDisplay:10.37,2013-01-20 22:29:00,
2013-01-20 16:34:00,65.7,40.7,30.05,South,176,5.8,8.1,40,0.00,CLR,,0.00,36.3,WeatherDisplay:10.37,2013-01-20 22:34:00,
2013-01-20 16:39:00,65.3,41.0,30.05,South,176,6.8,10.4,41,0.00,CLR,,0.00,36.3,WeatherDisplay:10.37,2013-01-20 22:39:00,
2013-01-20 16:44:00,64.9,41.2,30.05,South,176,5.4,8.1,42,0.00,CLR,,0.00,44.0,WeatherDisplay:10.37,2013-01-20 22:44:00,
2013-01-20 16:49:00,64.6,41.0,30.05,South,184,6.7,11.5,42,0.00,CLR,,0.00,38.5,WeatherDisplay:10.37,2013-01-20 22:49:00,
2013-01-20 16:54:00,64.6,40.4,30.05,South,187,6.7,11.5,41,0.00,CLR,,0.00,30.8,WeatherDisplay:10.37,2013-01-20 22:54:00,
2013-01-20 16:59:00,64.1,40.5,30.05,South,189,4.8,6.9,42,0.00,CLR,,0.00,58.3,WeatherDisplay:10.37,2013-01-20 22:59:00,
2013-01-20 17:04:00,63.9,41.0,30.05,South,189,6.7,7.0,43,0.00,CLR,,0.00,44.0,WeatherDisplay:10.37,2013-01-20 23:04:00,
2013-01-20 17:09:00,63.4,41.1,30.05,South,189,4.3,5.8,44,0.00,CLR,,0.00,27.5,WeatherDisplay:10.37,2013-01-20 23:09:00,
2013-01-20 17:14:00,62.9,40.6,30.05,South,189,3.8,4.0,44,0.00,CLR,,0.00,20.9,WeatherDisplay:10.37,2013-01-20 23:14:00,
2013-01-20 17:19:00,62.6,40.9,30.05,South,189,3.5,4.6,45,0.00,CLR,,0.00,19.8,WeatherDisplay:10.37,2013-01-20 23:19:00,
2013-01-20 17:24:00,62.4,40.8,30.05,South,189,2.8,4.6,45,0.00,CLR,,0.00,17.6,WeatherDisplay:10.37,2013-01-20 23:24:00,
2013-01-20 17:29:00,61.9,40.3,30.05,South,189,1.9,3.5,45,0.00,CLR,,0.00,13.2,WeatherDisplay:10.37,2013-01-20 23:29:00,
2013-01-20 17:34:00,60.1,40.3,30.05,South,189,1.2,3.5,48,0.00,CLR,,0.00,12.1,WeatherDisplay:10.37,2013-01-20 23:34:00,
2013-01-20 17:39:00,59.2,40.6,30.05,South,189,1.6,3.5,50,0.00,CLR,,0.00,7.7,WeatherDisplay:10.37,2013-01-20 23:39:00,
2013-01-20 17:44:00,57.8,40.8,30.05,South,189,0.0,2.3,53,0.00,CLR,,0.00,5.5,WeatherDisplay:10.37,2013-01-20 23:44:00,
2013-01-20 17:49:00,58.1,40.1,30.05,South,189,0.0,0.0,51,0.00,CLR,,0.00,0.0,WeatherDisplay:10.37,2013-01-20 23:49:00,
2013-01-20 17:54:00,57.6,40.1,30.06,South,189,1.6,1.6,52,0.00,CLR,,0.00,0.0,WeatherDisplay:10.37,2013-01-20 23:54:00,
2013-01-20 17:59:00,56.8,39.8,30.06,South,189,0.0,1.1,53,0.00,CLR,,0.00,0.0,WeatherDisplay:10.37,2013-01-20 23:59:00,
2013-01-20 18:04:00,56.5,40.0,30.06,South,189,0.0,0.0,54,0.00,CLR,,0.00,0.0,WeatherDisplay:10.37,2013-01-21 00:04:00,
2013-01-20 18:09:00,56.1,40.1,30.06,South,189,0.0,0.0,55,0.00,CLR,,0.00,0.0,WeatherDisplay:10.37,2013-01-21 00:09:00,
2013-01-20 18:14:00,54.9,39.5,30.06,South,189,0.0,0.0,56,0.00,CLR,,0.00,0.0,WeatherDisplay:10.37,2013-01-21 00:14:00,
2013-01-20 18:19:00,54.5,39.6,30.06,South,189,0.0,0.0,57,0.00,CLR,,0.00,0.0,WeatherDisplay:10.37,2013-01-21 00:19:00,
2013-01-20 18:24:00,54.3,39.4,30.06,South,189,0.0,0.0,57,0.00,CLR,,0.00,0.0,WeatherDisplay:10.37,2013-01-21 00:24:00,
2013-01-20 18:29:00,53.0,39.5,30.06,South,189,0.0,0.0,60,0.00,CLR,,0.00,0.0,WeatherDisplay:10.37,2013-01-21 00:29:00,
2013-01-20 18:34:00,52.8,39.7,30.07,South,189,0.0,0.0,61,0.00,CLR,,0.00,0.0,WeatherDisplay:10.37,2013-01-21 00:34:00,
2013-01-20 18:39:00,52.6,39.5,30.07,South,189,0.0,0.0,61,0.00,CLR,,0.00,0.0,WeatherDisplay:10.37,2013-01-21 00:39:00,
2013-01-20 18:44:00,51.7,39.1,30.07,South,189,0.0,0.0,62,0.00,CLR,,0.00,0.0,WeatherDisplay:10.37,2013-01-21 00:44:00,
2013-01-20 18:49:00,50.7,39.4,30.07,South,189,0.0,0.0,65,0.00,CLR,,0.00,0.0,WeatherDisplay:10.37,2013-01-21 00:49:00,
2013-01-20 18:54:00,50.5,39.2,30.07,South,189,0.0,0.0,65,0.00,CLR,,0.00,0.0,WeatherDisplay:10.37,2013-01-21 00:54:00,
2013-01-20 18:59:00,51.1,39.3,30.07,South,189,0.0,0.0,64,0.00,CLR,,0.00,0.0,WeatherDisplay:10.37,2013-01-21 00:59:00,
2013-01-20 19:04:00,51.0,39.2,30.07,South,189,0.0,0.0,64,0.00,CLR,,0.00,0.0,WeatherDisplay:10.37,2013-01-21 01:04:00,
2013-01-20 19:09:00,50.9,39.1,30.08,South,189,0.0,0.0,64,0.00,CLR,,0.00,0.0,WeatherDisplay:10.37,2013-01-21 01:09:00,
2013-01-20 19:14:00,50.3,39.0,30.08,South,189,0.0,0.0,65,0.00,CLR,,0.00,0.0,WeatherDisplay:10.37,2013-01-21 01:14:00,
2013-01-20 19:19:00,48.6,38.9,30.08,South,189,0.0,0.0,69,0.00,CLR,,0.00,0.0,WeatherDisplay:10.37,2013-01-21 01:19:00,
2013-01-20 19:24:00,47.1,38.9,30.08,South,189,0.0,0.0,73,0.00,CLR,,0.00,0.0,WeatherDisplay:10.37,2013-01-21 01:24:00,
2013-01-20 19:29:00,46.8,38.2,30.08,South,189,0.0,0.0,72,0.00,CLR,,0.00,0.0,WeatherDisplay:10.37,2013-01-21 01:29:00,
2013-01-20 19:34:00,47.9,38.9,30.08,South,189,0.0,0.0,71,0.00,CLR,,0.00,0.0,WeatherDisplay:10.37,2013-01-21 01:34:00,
2013-01-20 19:39:00,47.4,38.5,30.08,South,189,0.0,0.0,71,0.00,CLR,,0.00,0.0,WeatherDisplay:10.37,2013-01-21 01:39:00,
2013-01-20 19:45:00,46.3,38.5,30.08,South,189,0.0,0.0,74,0.00,CLR,,0.00,0.0,WeatherDisplay:10.37,2013-01-21 01:45:00,
2013-01-20 19:50:00,45.9,38.1,30.08,South,189,0.0,0.0,74,0.00,CLR,,0.00,0.0,WeatherDisplay:10.37,2013-01-21 01:50:00,
2013-01-20 19:55:00,45.6,38.5,30.08,South,189,0.0,0.0,76,0.00,CLR,,0.00,0.0,WeatherDisplay:10.37,2013-01-21 01:55:00,
2013-01-20 20:00:00,46.4,38.6,30.08,South,189,0.0,0.0,74,0.00,CLR,,0.00,0.0,WeatherDisplay:10.37,2013-01-21 02:00:00,
2013-01-20 20:05:00,46.9,38.7,30.08,South,189,0.0,0.0,73,0.00,CLR,,0.00,0.0,WeatherDisplay:10.37,2013-01-21 02:05:00,
2013-01-20 20:10:00,47.3,38.7,30.08,South,189,0.0,0.0,72,0.00,CLR,,0.00,0.0,WeatherDisplay:10.37,2013-01-21 02:10:00,
2013-01-20 20:15:00,46.6,38.4,30.09,South,189,0.0,0.0,73,0.00,CLR,,0.00,0.0,WeatherDisplay:10.37,2013-01-21 02:15:00,
2013-01-20 20:20:00,45.3,38.5,30.09,South,189,0.0,0.0,77,0.00,CLR,,0.00,0.0,WeatherDisplay:10.37,2013-01-21 02:20:00,
2013-01-20 20:25:00,44.1,37.7,30.09,South,189,0.0,0.0,78,0.00,CLR,,0.00,0.0,WeatherDisplay:10.37,2013-01-21 02:25:00,
2013-01-20 20:30:00,44.0,38.2,30.09,South,189,0.0,0.0,80,0.00,CLR,,0.00,0.0,WeatherDisplay:10.37,2013-01-21 02:30:00,
2013-01-20 20:35:00,44.2,38.1,30.09,South,189,0.0,0.0,79,0.00,CLR,,0.00,0.0,WeatherDisplay:10.37,2013-01-21 02:35:00,
2013-01-20 20:40:00,43.8,38.0,30.09,South,189,0.0,0.0,80,0.00,CLR,,0.00,0.0,WeatherDisplay:10.37,2013-01-21 02:40:00,
2013-01-20 20:45:00,45.1,38.6,30.09,South,189,0.0,0.0,78,0.00,CLR,,0.00,0.0,WeatherDisplay:10.37,2013-01-21 02:45:00,
2013-01-20 20:50:00,44.8,38.4,30.09,South,189,0.0,0.0,78,0.00,CLR,,0.00,0.0,WeatherDisplay:10.37,2013-01-21 02:50:00,
2013-01-20 20:55:00,43.3,38.2,30.09,South,189,2.8,3.5,82,0.00,CLR,,0.00,0.0,WeatherDisplay:10.37,2013-01-21 02:55:00,
2013-01-20 21:00:00,43.2,38.1,30.10,South,189,2.7,3.5,82,0.00,CLR,,0.00,0.0,WeatherDisplay:10.37,2013-01-21 03:00:00,
2013-01-20 21:05:00,44.6,38.8,30.10,South,189,2.8,3.5,80,0.00,CLR,,0.00,0.0,WeatherDisplay:10.37,2013-01-21 03:05:00,
2013-01-20 21:10:00,45.6,38.8,30.10,South,189,2.3,3.5,77,0.00,CLR,,0.00,0.0,WeatherDisplay:10.37,2013-01-21 03:10:00,
2013-01-20 21:15:00,44.2,38.1,30.10,South,189,2.2,3.5,79,0.00,CLR,,0.00,0.0,WeatherDisplay:10.37,2013-01-21 03:15:00,
2013-01-20 21:20:00,42.8,37.7,30.10,South,189,1.9,2.3,82,0.00,CLR,,0.00,0.0,WeatherDisplay:10.37,2013-01-21 03:20:00,
2013-01-20 21:25:00,42.1,37.0,30.10,South,189,1.9,3.5,82,0.00,CLR,,0.00,0.0,WeatherDisplay:10.37,2013-01-21 03:25:00,
2013-01-20 21:30:00,42.2,37.1,30.10,South,189,2.9,4.0,82,0.00,CLR,,0.00,0.0,WeatherDisplay:10.37,2013-01-21 03:30:00,
2013-01-20 21:35:00,43.7,38.3,30.11,South,189,2.8,3.5,81,0.00,CLR,,0.00,0.0,WeatherDisplay:10.37,2013-01-21 03:35:00,
2013-01-20 21:40:00,43.0,37.9,30.11,South,189,2.6,3.5,82,0.00,CLR,,0.00,0.0,WeatherDisplay:10.37,2013-01-21 03:40:00,
2013-01-20 21:45:00,42.4,37.6,30.11,South,189,2.8,3.5,83,0.00,CLR,,0.00,0.0,WeatherDisplay:10.37,2013-01-21 03:45:00,
2013-01-20 21:50:00,42.0,37.2,30.11,South,189,0.0,0.0,83,0.00,CLR,,0.00,0.0,WeatherDisplay:10.37,2013-01-21 03:50:00,
2013-01-20 21:55:00,41.7,37.2,30.11,South,189,2.6,3.5,84,0.00,CLR,,0.00,0.0,WeatherDisplay:10.37,2013-01-21 03:55:00,
2013-01-20 22:00:00,41.9,37.7,30.11,South,189,3.0,4.0,85,0.00,CLR,,0.00,0.0,WeatherDisplay:10.37,2013-01-21 04:00:00,
2013-01-20 22:05:00,44.1,39.0,30.11,South,189,3.0,3.5,82,0.00,CLR,,0.00,0.0,WeatherDisplay:10.37,2013-01-21 04:05:00,
2013-01-20 22:10:00,42.9,38.1,30.11,South,189,2.8,3.5,83,0.00,CLR,,0.00,0.0,WeatherDisplay:10.37,2013-01-21 04:10:00,
2013-01-20 22:15:00,41.9,37.7,30.12,South,189,3.5,4.6,85,0.00,CLR,,0.00,0.0,WeatherDisplay:10.37,2013-01-21 04:15:00,
2013-01-20 22:20:00,42.9,38.4,30.12,South,189,2.5,3.5,84,0.00,CLR,,0.00,0.0,WeatherDisplay:10.37,2013-01-21 04:20:00,
2013-01-20 22:25:00,42.4,38.2,30.12,South,189,2.0,3.0,85,0.00,CLR,,0.00,0.0,WeatherDisplay:10.37,2013-01-21 04:25:00,
2013-01-20 22:30:00,40.4,36.5,30.12,South,189,2.6,3.5,86,0.00,CLR,,0.00,0.0,WeatherDisplay:10.37,2013-01-21 04:30:00,
2013-01-20 22:35:00,40.1,36.5,30.12,South,189,4.7,4.7,87,0.00,CLR,,0.00,0.0,WeatherDisplay:10.37,2013-01-21 04:35:00,
2013-01-20 22:40:00,42.4,38.5,30.12,South,190,4.5,5.8,86,0.00,CLR,,0.00,0.0,WeatherDisplay:10.37,2013-01-21 04:40:00,
2013-01-20 22:45:00,44.4,39.9,30.12,South,190,1.7,2.3,84,0.00,CLR,,0.00,0.0,WeatherDisplay:10.37,2013-01-21 04:45:00,
2013-01-20 22:50:00,42.3,37.5,30.12,South,190,0.0,0.0,83,0.00,CLR,,0.00,0.0,WeatherDisplay:10.37,2013-01-21 04:50:00,
2013-01-20 22:55:00,41.6,37.7,30.12,South,190,0.0,0.0,86,0.00,CLR,,0.00,0.0,WeatherDisplay:10.37,2013-01-21 04:55:00,
2013-01-20 23:00:00,41.0,37.1,30.12,South,190,0.0,0.0,86,0.00,CLR,,0.00,0.0,WeatherDisplay:10.37,2013-01-21 05:00:00,
2013-01-20 23:02:00,40.5,36.6,30.12,South,190,0.0,0.0,86,0.00,CLR,,0.00,0.0,WeatherDisplay:10.37,2013-01-21 05:02:00,
2013-01-20 23:03:00,40.1,36.2,30.12,South,190,0.0,0.0,86,0.00,CLR,,0.00,0.0,WeatherDisplay:10.37,2013-01-21 05:03:00,
2013-01-20 23:08:00,39.9,36.1,30.12,South,190,0.0,0.0,86,0.00,CLR,,0.00,0.0,WeatherDisplay:10.37,2013-01-21 05:08:00,
2013-01-20 23:13:00,39.3,35.8,30.12,South,190,0.0,0.0,87,0.00,CLR,,0.00,0.0,WeatherDisplay:10.37,2013-01-21 05:13:00,
2013-01-20 23:18:00,39.2,35.9,30.12,South,190,0.0,0.0,88,0.00,CLR,,0.00,0.0,WeatherDisplay:10.37,2013-01-21 05:18:00,
2013-01-20 23:23:00,39.8,36.5,30.12,South,190,0.0,0.0,88,0.00,CLR,,0.00,0.0,WeatherDisplay:10.37,2013-01-21 05:23:00,
2013-01-20 23:28:00,39.6,36.3,30.12,South,190,0.0,0.0,88,0.00,CLR,,0.00,0.0,WeatherDisplay:10.37,2013-01-21 05:28:00,
2013-01-20 23:33:00,39.1,35.8,30.12,South,190,0.0,0.0,88,0.00,CLR,,0.00,0.0,WeatherDisplay:10.37,2013-01-21 05:33:00,
2013-01-20 23:39:00,38.8,36.1,30.12,South,190,5.2,7.0,90,0.00,CLR,,0.00,0.0,WeatherDisplay:10.37,2013-01-21 05:39:00,
2013-01-20 23:44:00,40.6,37.3,30.13,South,187,5.0,6.9,88,0.00,CLR,,0.00,0.0,WeatherDisplay:10.37,2013-01-21 05:44:00,
2013-01-20 23:49:00,43.6,39.4,30.13,North,356,6.3,9.2,85,0.00,CLR,,0.00,0.0,WeatherDisplay:10.37,2013-01-21 05:49:00,
2013-01-20 23:54:00,43.5,38.7,30.13,North,356,4.3,6.0,83,0.00,CLR,,0.00,0.0,WeatherDisplay:10.37,2013-01-21 05:54:00,
2013-01-20 23:59:00,44.8,39.3,30.13,North,356,4.3,5.8,81,0.00,CLR,,0.00,0.0,WeatherDisplay:10.37,2013-01-21 05:59:00,